Powrót do katalogu

STARLINK-3087

AktywnyŁącznośćVLEO
NORAD 49175·PAYLOAD·🇺🇸 United States

Wystrzelony Sep 14, 2021 z Vandenberg Space Force Base

Loading…

Następne Przeloty (najbliższe 24 godziny)

TLE

ŚwieżeSource: CelesTrak SupGP

Epoka: Sep 14, 2026, 14:16 UTC

1 49175C 21082AX  26257.59493056  .00066283  00000+0  56729-2 0  2574
2 49175  70.0009 159.6793 0002757 264.1460 218.9040 14.97482800    16

Śledź STARLINK-3087 w czasie rzeczywistym z AllMySat

Download on the App Store